Back to Top

Language: 

My Weather Underground Personal Weather Station Historical Data with Graphs...

Delerius Weather Station Historical Data
Daily Summary for June 27, 2017 Units:  English    Metric   Both
« Previous Day
Next Day »
Daily Weekly Monthly Yearly Custom
  High: Low: Average:
Temperature: 62.1 °F 54.0 °F 57.2 °F
Dew Point: 55.6 °F 46.6 °F 51.8 °F
Humidity: 95 % 68 % 82 %
Wind Speed: 9.0 mph 1.0 mph 5.1 mph
Wind Gust: 18.0 mph - -
Wind:- - ESE
Pressure: 29.91 in 29.66 in -
Precipitation: 0.03 in    
Historical Graphs
 
 
Tabular Data for June 27, 2017
Time Temperature Dew Point Pressure Wind Wind Speed Wind Gust Humidity Rainfall Rate (Hourly) solar Conditions
00:00 57.6 °F 47.1 °F 29.91 in ESE 4.0 mph 10.0 mph 68 % 0.00 in 0 W/m2
00:05 57.4 °F 46.9 °F 29.91 in ESE 5.0 mph 10.0 mph 68 % 0.00 in 0 W/m2
00:10 57.4 °F 46.9 °F 29.91 in ESE 4.0 mph 9.0 mph 68 % 0.00 in 0 W/m2
00:15 57.4 °F 46.9 °F 29.90 in ESE 4.0 mph 8.0 mph 68 % 0.00 in 0 W/m2
00:20 57.4 °F 46.9 °F 29.91 in ESE 4.0 mph 9.0 mph 68 % 0.00 in 0 W/m2
00:25 57.4 °F 46.9 °F 29.90 in SE 4.0 mph 9.0 mph 68 % 0.00 in 0 W/m2
00:30 57.4 °F 46.9 °F 29.90 in SE 4.0 mph 8.0 mph 68 % 0.00 in 0 W/m2
00:35 57.2 °F 46.7 °F 29.90 in SE 4.0 mph 9.0 mph 68 % 0.00 in 0 W/m2
00:40 57.2 °F 46.7 °F 29.90 in SE 5.0 mph 9.0 mph 68 % 0.00 in 0 W/m2
00:45 57.2 °F 46.7 °F 29.90 in SE 7.0 mph 12.0 mph 68 % 0.00 in 0 W/m2
00:50 57.2 °F 46.7 °F 29.89 in SE 6.0 mph 12.0 mph 68 % 0.00 in 0 W/m2
00:55 57.0 °F 46.6 °F 29.89 in SE 6.0 mph 10.0 mph 68 % 0.00 in 0 W/m2
01:00 57.0 °F 46.9 °F 29.89 in ESE 5.0 mph 10.0 mph 69 % 0.00 in 0 W/m2
01:01 57.0 °F 46.9 °F 29.89 in ESE 5.0 mph 10.0 mph 69 % 0.00 in 0 W/m2
01:06 57.0 °F 46.9 °F 29.89 in ESE 5.0 mph 9.0 mph 69 % 0.00 in 0 W/m2
01:11 57.0 °F 47.3 °F 29.89 in ESE 5.0 mph 8.0 mph 70 % 0.00 in 0 W/m2
01:16 56.8 °F 47.2 °F 29.89 in ESE 4.0 mph 8.0 mph 70 % 0.00 in 0 W/m2
01:21 56.8 °F 47.2 °F 29.89 in ESE 4.0 mph 9.0 mph 70 % 0.00 in 0 W/m2
01:27 56.8 °F 47.2 °F 29.89 in ESE 4.0 mph 9.0 mph 70 % 0.00 in 0 W/m2
01:32 56.8 °F 47.5 °F 29.89 in ESE 4.0 mph 9.0 mph 71 % 0.00 in 0 W/m2
01:37 56.8 °F 47.5 °F 29.89 in ESE 3.0 mph 7.0 mph 71 % 0.00 in 0 W/m2
01:42 56.8 °F 47.9 °F 29.88 in ESE 3.0 mph 7.0 mph 72 % 0.00 in 0 W/m2
01:47 56.8 °F 48.3 °F 29.88 in ESE 4.0 mph 7.0 mph 73 % 0.00 in 0 W/m2
01:52 56.7 °F 48.1 °F 29.88 in ESE 4.0 mph 9.0 mph 73 % 0.00 in 0 W/m2
01:57 56.7 °F 48.1 °F 29.88 in ESE 3.0 mph 9.0 mph 73 % 0.00 in 0 W/m2
02:02 56.7 °F 48.5 °F 29.88 in East 3.0 mph 7.0 mph 74 % 0.00 in 0 W/m2
02:07 56.7 °F 48.5 °F 29.88 in ESE 3.0 mph 7.0 mph 74 % 0.00 in 0 W/m2
02:12 56.7 °F 48.8 °F 29.88 in ESE 3.0 mph 7.0 mph 75 % 0.00 in 0 W/m2
02:17 56.7 °F 48.8 °F 29.87 in ESE 4.0 mph 8.0 mph 75 % 0.00 in 0 W/m2
02:22 56.7 °F 49.2 °F 29.87 in ESE 5.0 mph 8.0 mph 76 % 0.00 in 0 W/m2
02:27 56.7 °F 49.2 °F 29.87 in ESE 5.0 mph 8.0 mph 76 % 0.00 in 0 W/m2
02:32 56.7 °F 49.2 °F 29.87 in ESE 5.0 mph 8.0 mph 76 % 0.00 in 0 W/m2
02:37 56.7 °F 49.5 °F 29.87 in ESE 5.0 mph 8.0 mph 77 % 0.00 in 0 W/m2
02:42 56.7 °F 49.5 °F 29.86 in ESE 5.0 mph 8.0 mph 77 % 0.00 in 0 W/m2
02:48 56.5 °F 49.4 °F 29.86 in ESE 5.0 mph 8.0 mph 77 % 0.00 in 0 W/m2
02:53 56.5 °F 49.7 °F 29.86 in ESE 5.0 mph 8.0 mph 78 % 0.00 in 0 W/m2
02:54 56.5 °F 49.7 °F 29.86 in ESE 5.0 mph 8.0 mph 78 % 0.00 in 0 W/m2
02:59 56.5 °F 49.7 °F 29.86 in ESE 4.0 mph 7.0 mph 78 % 0.00 in 0 W/m2
03:04 56.5 °F 49.7 °F 29.86 in ESE 4.0 mph 9.0 mph 78 % 0.00 in 0 W/m2
03:09 56.5 °F 49.7 °F 29.86 in ESE 5.0 mph 9.0 mph 78 % 0.00 in 0 W/m2
03:15 56.5 °F 49.7 °F 29.85 in East 4.0 mph 8.0 mph 78 % 0.00 in 0 W/m2
03:20 56.5 °F 50.0 °F 29.85 in ESE 3.0 mph 7.0 mph 79 % 0.00 in 0 W/m2
03:25 56.3 °F 49.9 °F 29.85 in ESE 4.0 mph 8.0 mph 79 % 0.00 in 0 W/m2
03:30 56.3 °F 49.9 °F 29.85 in East 4.0 mph 8.0 mph 79 % 0.00 in 0 W/m2
03:35 56.3 °F 49.9 °F 29.85 in East 3.0 mph 9.0 mph 79 % 0.00 in 0 W/m2
03:40 56.3 °F 49.9 °F 29.85 in ESE 4.0 mph 9.0 mph 79 % 0.00 in 0 W/m2
03:45 56.3 °F 49.9 °F 29.85 in ESE 5.0 mph 7.0 mph 79 % 0.00 in 0 W/m2
03:50 56.3 °F 49.9 °F 29.85 in ESE 4.0 mph 7.0 mph 79 % 0.00 in 0 W/m2
03:55 56.3 °F 50.2 °F 29.85 in ESE 2.0 mph 7.0 mph 80 % 0.00 in 0 W/m2
04:00 56.3 °F 50.2 °F 29.85 in East 2.0 mph 6.0 mph 80 % 0.00 in 0 W/m2
04:05 56.1 °F 50.0 °F 29.84 in ESE 2.0 mph 6.0 mph 80 % 0.00 in 0 W/m2
04:10 55.9 °F 49.9 °F 29.84 in ESE 3.0 mph 6.0 mph 80 % 0.00 in 0 W/m2
04:15 55.9 °F 50.2 °F 29.84 in East 2.0 mph 5.0 mph 81 % 0.00 in 0 W/m2
04:20 55.9 °F 50.2 °F 29.84 in East 1.0 mph 6.0 mph 81 % 0.00 in 0 W/m2
04:25 55.9 °F 50.2 °F 29.84 in East 2.0 mph 6.0 mph 81 % 0.00 in 0 W/m2
04:30 55.9 °F 50.2 °F 29.84 in ESE 3.0 mph 8.0 mph 81 % 0.00 in 0 W/m2
04:35 55.9 °F 50.2 °F 29.84 in ESE 3.0 mph 8.0 mph 81 % 0.00 in 0 W/m2
04:40 55.9 °F 50.2 °F 29.84 in ESE 3.0 mph 6.0 mph 81 % 0.00 in 0 W/m2
04:45 55.8 °F 49.7 °F 29.84 in SE 3.0 mph 7.0 mph 80 % 0.00 in 0 W/m2
04:50 55.8 °F 49.3 °F 29.83 in SE 4.0 mph 8.0 mph 79 % 0.00 in 0 W/m2
04:55 55.8 °F 49.0 °F 29.83 in SE 5.0 mph 8.0 mph 78 % 0.00 in 0 W/m2
05:00 55.8 °F 48.7 °F 29.83 in SE 5.0 mph 10.0 mph 77 % 0.00 in 0 W/m2
05:04 55.8 °F 48.7 °F 29.83 in ESE 5.0 mph 10.0 mph 77 % 0.00 in 0 W/m2
05:09 55.9 °F 48.8 °F 29.83 in ESE 4.0 mph 8.0 mph 77 % 0.00 in 0 W/m2
05:14 55.8 °F 48.3 °F 29.83 in ESE 4.0 mph 8.0 mph 76 % 0.00 in 0 W/m2
05:19 55.8 °F 48.0 °F 29.83 in ESE 5.0 mph 9.0 mph 75 % 0.00 in 0 W/m2
05:24 55.9 °F 48.1 °F 29.83 in ESE 4.0 mph 9.0 mph 75 % 0.00 in 5 W/m2
05:29 55.9 °F 47.8 °F 29.83 in ESE 5.0 mph 9.0 mph 74 % 0.00 in 5 W/m2
05:34 55.9 °F 47.8 °F 29.83 in ESE 5.0 mph 9.0 mph 74 % 0.00 in 7 W/m2
05:39 55.9 °F 48.5 °F 29.83 in ESE 5.0 mph 8.0 mph 76 % 0.00 in 7 W/m2
05:44 55.9 °F 48.5 °F 29.83 in ESE 5.0 mph 8.0 mph 76 % 0.00 in 9 W/m2
05:50 55.8 °F 48.7 °F 29.83 in ESE 5.0 mph 8.0 mph 77 % 0.00 in 11 W/m2
05:55 55.8 °F 49.0 °F 29.83 in ESE 4.0 mph 8.0 mph 78 % 0.00 in 12 W/m2
06:00 55.8 °F 49.0 °F 29.83 in ESE 4.0 mph 8.0 mph 78 % 0.00 in 12 W/m2
06:05 55.8 °F 49.3 °F 29.83 in ESE 4.0 mph 8.0 mph 79 % 0.00 in 12 W/m2
06:10 55.8 °F 49.3 °F 29.83 in ESE 3.0 mph 7.0 mph 79 % 0.00 in 11 W/m2
06:15 55.8 °F 49.3 °F 29.83 in ESE 2.0 mph 6.0 mph 79 % 0.00 in 11 W/m2
06:20 55.6 °F 49.2 °F 29.83 in East 3.0 mph 7.0 mph 79 % 0.00 in 12 W/m2
06:25 55.6 °F 49.2 °F 29.83 in ESE 4.0 mph 7.0 mph 79 % 0.00 in 12 W/m2
06:30 55.6 °F 49.2 °F 29.83 in ESE 4.0 mph 7.0 mph 79 % 0.00 in 9 W/m2
06:35 55.4 °F 49.3 °F 29.83 in ESE 4.0 mph 7.0 mph 80 % 0.00 in 9 W/m2
06:40 55.2 °F 49.2 °F 29.83 in ESE 3.0 mph 8.0 mph 80 % 0.00 in 9 W/m2
06:45 55.2 °F 49.2 °F 29.83 in ESE 4.0 mph 8.0 mph 80 % 0.00 in 11 W/m2
06:50 55.0 °F 49.0 °F 29.84 in ESE 5.0 mph 8.0 mph 80 % 0.00 in 14 W/m2
06:55 55.0 °F 49.0 °F 29.83 in ESE 5.0 mph 8.0 mph 80 % 0.00 in 21 W/m2
07:00 55.0 °F 49.0 °F 29.83 in ESE 5.0 mph 9.0 mph 80 % 0.00 in 23 W/m2
07:05 54.9 °F 48.8 °F 29.83 in ESE 4.0 mph 10.0 mph 80 % 0.00 in 23 W/m2
07:10 54.9 °F 49.1 °F 29.83 in East 4.0 mph 10.0 mph 81 % 0.00 in 30 W/m2
07:15 54.9 °F 49.1 °F 29.83 in ESE 4.0 mph 9.0 mph 81 % 0.00 in 51 W/m2
07:20 54.9 °F 49.1 °F 29.83 in ESE 5.0 mph 9.0 mph 81 % 0.00 in 53 W/m2
07:25 54.9 °F 49.5 °F 29.83 in East 3.0 mph 8.0 mph 82 % 0.00 in 54 W/m2
07:30 54.9 °F 49.5 °F 29.83 in East 2.0 mph 6.0 mph 82 % 0.00 in 49 W/m2
07:35 55.0 °F 49.6 °F 29.83 in East 2.0 mph 6.0 mph 82 % 0.00 in 60 W/m2
07:40 55.0 °F 49.6 °F 29.83 in ESE 2.0 mph 6.0 mph 82 % 0.00 in 60 W/m2
07:46 55.0 °F 49.6 °F 29.83 in ESE 2.0 mph 6.0 mph 82 % 0.00 in 54 W/m2
07:51 55.0 °F 50.0 °F 29.83 in ESE 3.0 mph 7.0 mph 83 % 0.00 in 46 W/m2
07:56 55.2 °F 50.1 °F 29.83 in ESE 3.0 mph 7.0 mph 83 % 0.00 in 37 W/m2
08:01 55.0 °F 50.3 °F 29.83 in ESE 2.0 mph 7.0 mph 84 % 0.00 in 49 W/m2
08:06 55.0 °F 50.6 °F 29.83 in ESE 2.0 mph 7.0 mph 85 % 0.00 in 67 W/m2
08:11 55.0 °F 50.9 °F 29.84 in East 2.0 mph 7.0 mph 86 % 0.00 in 49 W/m2
08:16 55.0 °F 50.9 °F 29.84 in East 2.0 mph 7.0 mph 86 % 0.00 in 37 W/m2
08:21 54.9 °F 51.1 °F 29.84 in East 3.0 mph 7.0 mph 87 % 0.00 in 65 W/m2
08:26 54.9 °F 51.1 °F 29.84 in East 3.0 mph 7.0 mph 87 % 0.00 in 63 W/m2
08:31 54.9 °F 51.1 °F 29.84 in East 2.0 mph 7.0 mph 87 % 0.00 in 54 W/m2
08:36 54.9 °F 51.4 °F 29.84 in East 2.0 mph 7.0 mph 88 % 0.00 in 53 W/m2
08:41 54.9 °F 51.4 °F 29.84 in East 1.0 mph 6.0 mph 88 % 0.00 in 56 W/m2
08:46 55.0 °F 51.5 °F 29.84 in ESE 1.0 mph 6.0 mph 88 % 0.00 in 56 W/m2
08:51 55.0 °F 51.5 °F 29.84 in East 2.0 mph 6.0 mph 88 % 0.00 in 65 W/m2
08:56 55.0 °F 51.5 °F 29.84 in East 2.0 mph 6.0 mph 88 % 0.00 in 67 W/m2
09:01 55.0 °F 51.9 °F 29.84 in East 2.0 mph 6.0 mph 89 % 0.00 in 65 W/m2
09:06 55.2 °F 52.0 °F 29.83 in East 2.0 mph 7.0 mph 89 % 0.00 in 77 W/m2
09:11 55.2 °F 52.0 °F 29.83 in East 2.0 mph 7.0 mph 89 % 0.00 in 90 W/m2
09:16 55.2 °F 52.0 °F 29.83 in ENE 3.0 mph 8.0 mph 89 % 0.00 in 93 W/m2
09:21 55.4 °F 52.2 °F 29.83 in East 3.0 mph 8.0 mph 89 % 0.00 in 107 W/m2
09:26 55.4 °F 51.9 °F 29.82 in East 3.0 mph 9.0 mph 88 % 0.00 in 158 W/m2
09:31 55.6 °F 52.1 °F 29.82 in East 4.0 mph 9.0 mph 88 % 0.00 in 139 W/m2
09:36 55.6 °F 51.8 °F 29.82 in East 5.0 mph 10.0 mph 87 % 0.00 in 156 W/m2
09:41 55.8 °F 51.9 °F 29.82 in East 5.0 mph 10.0 mph 87 % 0.00 in 151 W/m2
09:46 55.9 °F 52.1 °F 29.82 in East 5.0 mph 9.0 mph 87 % 0.00 in 144 W/m2
09:51 55.9 °F 51.8 °F 29.82 in ESE 5.0 mph 9.0 mph 86 % 0.00 in 123 W/m2
09:56 56.1 °F 52.0 °F 29.82 in ESE 6.0 mph 12.0 mph 86 % 0.00 in 155 W/m2
10:01 56.1 °F 51.7 °F 29.81 in ESE 7.0 mph 12.0 mph 85 % 0.00 in 176 W/m2
10:06 56.5 °F 52.0 °F 29.82 in ESE 6.0 mph 12.0 mph 85 % 0.00 in 113 W/m2
10:11 56.5 °F 52.0 °F 29.81 in ESE 6.0 mph 11.0 mph 85 % 0.00 in 114 W/m2
10:16 56.5 °F 52.0 °F 29.81 in ESE 7.0 mph 12.0 mph 85 % 0.00 in 139 W/m2
10:21 56.5 °F 52.0 °F 29.80 in ESE 7.0 mph 12.0 mph 85 % 0.00 in 137 W/m2
10:26 56.7 °F 52.5 °F 29.80 in ESE 6.0 mph 10.0 mph 86 % 0.00 in 127 W/m2
10:31 56.7 °F 52.5 °F 29.80 in ESE 6.0 mph 11.0 mph 86 % 0.00 in 172 W/m2
10:36 56.5 °F 52.3 °F 29.80 in ESE 6.0 mph 12.0 mph 86 % 0.00 in 127 W/m2
10:41 56.5 °F 52.7 °F 29.80 in ESE 6.0 mph 12.0 mph 87 % 0.00 in 98 W/m2
10:46 56.5 °F 52.7 °F 29.80 in ESE 6.0 mph 11.0 mph 87 % 0.00 in 86 W/m2
10:51 56.3 °F 52.5 °F 29.80 in ESE 7.0 mph 13.0 mph 87 % 0.00 in 104 W/m2
10:57 56.3 °F 52.5 °F 29.80 in ESE 7.0 mph 13.0 mph 87 % 0.00 in 153 W/m2
11:02 56.5 °F 53.0 °F 29.80 in ESE 7.0 mph 13.0 mph 88 % 0.00 in 160 W/m2
11:07 56.5 °F 53.0 °F 29.80 in ESE 8.0 mph 13.0 mph 88 % 0.00 in 153 W/m2
11:12 56.5 °F 53.3 °F 29.80 in ESE 8.0 mph 13.0 mph 89 % 0.00 in 220 W/m2
11:17 56.7 °F 53.5 °F 29.79 in ESE 6.0 mph 12.0 mph 89 % 0.00 in 246 W/m2
11:22 56.7 °F 53.5 °F 29.78 in ESE 6.0 mph 11.0 mph 89 % 0.00 in 267 W/m2
11:26 57.0 °F 53.8 °F 29.77 in ESE 7.0 mph 12.0 mph 89 % 0.00 in 283 W/m2
11:31 57.4 °F 53.9 °F 29.77 in ESE 7.0 mph 14.0 mph 88 % 0.00 in 285 W/m2
11:37 57.6 °F 53.7 °F 29.78 in ESE 8.0 mph 15.0 mph 87 % 0.00 in 374 W/m2
11:42 57.9 °F 53.8 °F 29.78 in ESE 8.0 mph 15.0 mph 86 % 0.00 in 550 W/m2
11:47 58.6 °F 54.1 °F 29.78 in ESE 8.0 mph 15.0 mph 85 % 0.00 in 522 W/m2
11:52 59.0 °F 53.8 °F 29.78 in ESE 9.0 mph 15.0 mph 83 % 0.00 in 418 W/m2
11:57 59.4 °F 53.9 °F 29.77 in ESE 9.0 mph 15.0 mph 82 % 0.00 in 369 W/m2
12:02 59.7 °F 53.9 °F 29.77 in ESE 8.0 mph 13.0 mph 81 % 0.00 in 322 W/m2
12:07 59.7 °F 53.2 °F 29.77 in ESE 8.0 mph 15.0 mph 79 % 0.00 in 327 W/m2
12:12 59.7 °F 52.5 °F 29.77 in ESE 8.0 mph 15.0 mph 77 % 0.00 in 320 W/m2
12:17 59.9 °F 52.7 °F 29.77 in ESE 8.0 mph 14.0 mph 77 % 0.00 in 364 W/m2
12:22 60.3 °F 52.3 °F 29.77 in ESE 8.0 mph 14.0 mph 75 % 0.00 in 316 W/m2
12:26 60.3 °F 52.3 °F 29.77 in ESE 8.0 mph 14.0 mph 75 % 0.00 in 318 W/m2
12:31 60.3 °F 51.9 °F 29.77 in ESE 9.0 mph 15.0 mph 74 % 0.00 in 330 W/m2
12:36 60.4 °F 52.5 °F 29.76 in ESE 8.0 mph 15.0 mph 75 % 0.00 in 327 W/m2
12:41 61.0 °F 52.3 °F 29.76 in ESE 6.0 mph 12.0 mph 73 % 0.00 in 299 W/m2
12:46 61.0 °F 51.1 °F 29.76 in ESE 6.0 mph 12.0 mph 70 % 0.00 in 241 W/m2
12:51 61.0 °F 51.1 °F 29.76 in ESE 8.0 mph 12.0 mph 70 % 0.00 in 221 W/m2
12:56 60.6 °F 51.2 °F 29.76 in ESE 8.0 mph 13.0 mph 71 % 0.00 in 183 W/m2
13:01 60.6 °F 51.5 °F 29.76 in ESE 8.0 mph 13.0 mph 72 % 0.00 in 179 W/m2
13:06 60.8 °F 51.7 °F 29.76 in SE 7.0 mph 14.0 mph 72 % 0.00 in 165 W/m2
13:11 60.8 °F 52.1 °F 29.76 in ESE 7.0 mph 14.0 mph 73 % 0.00 in 199 W/m2
13:16 60.6 °F 51.9 °F 29.75 in ESE 8.0 mph 13.0 mph 73 % 0.00 in 255 W/m2
13:21 60.6 °F 52.3 °F 29.75 in SE 9.0 mph 18.0 mph 74 % 0.00 in 197 W/m2
13:26 60.4 °F 52.8 °F 29.75 in SE 9.0 mph 18.0 mph 76 % 0.00 in 178 W/m2
13:31 60.3 °F 52.7 °F 29.75 in SE 8.0 mph 14.0 mph 76 % 0.00 in 243 W/m2
13:36 59.9 °F 52.3 °F 29.75 in SE 9.0 mph 14.0 mph 76 % 0.00 in 345 W/m2
13:41 60.1 °F 53.2 °F 29.75 in ESE 8.0 mph 13.0 mph 78 % 0.00 in 309 W/m2
13:46 60.1 °F 54.2 °F 29.75 in SE 7.0 mph 12.0 mph 81 % 0.00 in 218 W/m2
13:51 59.7 °F 54.2 °F 29.75 in ESE 8.0 mph 12.0 mph 82 % 0.00 in 304 W/m2
13:56 59.7 °F 54.9 °F 29.75 in ESE 7.0 mph 12.0 mph 84 % 0.00 in 380 W/m2
14:01 59.9 °F 55.1 °F 29.75 in ESE 6.0 mph 13.0 mph 84 % 0.00 in 225 W/m2
14:06 59.9 °F 55.1 °F 29.75 in ESE 7.0 mph 13.0 mph 84 % 0.00 in 221 W/m2
14:09 59.9 °F 55.1 °F 29.75 in ESE 7.0 mph 13.0 mph 84 % 0.00 in 267 W/m2
14:14 60.1 °F 55.6 °F 29.74 in ESE 6.0 mph 10.0 mph 85 % 0.00 in 153 W/m2
14:19 60.1 °F 54.9 °F 29.74 in ESE 6.0 mph 13.0 mph 83 % 0.00 in 341 W/m2
14:24 60.3 °F 55.1 °F 29.74 in ESE 7.0 mph 13.0 mph 83 % 0.00 in 179 W/m2
14:29 60.3 °F 55.1 °F 29.74 in ESE 6.0 mph 12.0 mph 83 % 0.00 in 128 W/m2
14:34 60.1 °F 54.6 °F 29.74 in ESE 6.0 mph 12.0 mph 82 % 0.00 in 255 W/m2
14:39 60.1 °F 54.6 °F 29.74 in ESE 7.0 mph 12.0 mph 82 % 0.00 in 185 W/m2
14:44 60.1 °F 54.6 °F 29.73 in ESE 7.0 mph 12.0 mph 82 % 0.00 in 158 W/m2
14:49 60.1 °F 54.6 °F 29.74 in ESE 7.0 mph 12.0 mph 82 % 0.00 in 118 W/m2
14:54 60.1 °F 54.6 °F 29.73 in ESE 6.0 mph 12.0 mph 82 % 0.00 in 93 W/m2
14:59 60.1 °F 54.6 °F 29.74 in ESE 7.0 mph 11.0 mph 82 % 0.00 in 69 W/m2
15:04 59.9 °F 54.4 °F 29.73 in ESE 7.0 mph 11.0 mph 82 % 0.00 in 172 W/m2
15:09 59.9 °F 54.4 °F 29.73 in ESE 6.0 mph 11.0 mph 82 % 0.00 in 332 W/m2
15:14 60.3 °F 54.1 °F 29.73 in ESE 6.0 mph 11.0 mph 80 % 0.00 in 336 W/m2
15:19 60.8 °F 54.2 °F 29.73 in ESE 6.0 mph 12.0 mph 79 % 0.00 in 322 W/m2
15:24 61.2 °F 53.9 °F 29.73 in ESE 7.0 mph 13.0 mph 77 % 0.00 in 327 W/m2
15:29 61.5 °F 53.5 °F 29.73 in SE 8.0 mph 13.0 mph 75 % 0.00 in 276 W/m2
15:34 61.9 °F 53.9 °F 29.73 in SE 7.0 mph 12.0 mph 75 % 0.00 in 167 W/m2
15:39 61.9 °F 53.9 °F 29.72 in ESE 6.0 mph 12.0 mph 75 % 0.00 in 220 W/m2
15:44 61.9 °F 53.9 °F 29.72 in ESE 7.0 mph 12.0 mph 75 % 0.00 in 288 W/m2
15:50 62.1 °F 54.4 °F 29.72 in ESE 6.0 mph 11.0 mph 76 % 0.00 in 183 W/m2
15:55 62.1 °F 54.4 °F 29.72 in ESE 6.0 mph 10.0 mph 76 % 0.00 in 90 W/m2
16:00 61.9 °F 54.9 °F 29.72 in ESE 5.0 mph 10.0 mph 78 % 0.00 in 58 W/m2
16:05 61.5 °F 54.6 °F 29.71 in ESE 5.0 mph 11.0 mph 78 % 0.00 in 51 W/m2
16:10 61.3 °F 55.1 °F 29.72 in ESE 5.0 mph 11.0 mph 80 % 0.00 in 37 W/m2
16:15 61.0 °F 54.8 °F 29.71 in ESE 6.0 mph 11.0 mph 80 % 0.00 in 32 W/m2
16:20 60.6 °F 54.8 °F 29.71 in ESE 7.0 mph 11.0 mph 81 % 0.00 in 32 W/m2
16:25 60.4 °F 54.9 °F 29.71 in ESE 6.0 mph 11.0 mph 82 % 0.00 in 44 W/m2
16:30 60.3 °F 54.7 °F 29.71 in ESE 6.0 mph 11.0 mph 82 % 0.00 in 44 W/m2
16:35 60.3 °F 54.7 °F 29.71 in ESE 6.0 mph 11.0 mph 82 % 0.00 in 44 W/m2
16:40 60.1 °F 54.6 °F 29.71 in ESE 6.0 mph 10.0 mph 82 % 0.00 in 51 W/m2
16:45 60.1 °F 54.6 °F 29.70 in ESE 6.0 mph 11.0 mph 82 % 0.00 in 46 W/m2
16:50 60.1 °F 54.6 °F 29.71 in ESE 7.0 mph 11.0 mph 82 % 0.00 in 44 W/m2
16:55 59.9 °F 54.4 °F 29.70 in ESE 7.0 mph 11.0 mph 82 % 0.00 in 42 W/m2
17:00 59.9 °F 54.4 °F 29.70 in ESE 7.0 mph 12.0 mph 82 % 0.00 in 46 W/m2
17:05 59.7 °F 54.2 °F 29.70 in ESE 7.0 mph 13.0 mph 82 % 0.00 in 40 W/m2
17:10 59.7 °F 54.2 °F 29.70 in ESE 7.0 mph 13.0 mph 82 % 0.00 in 42 W/m2
17:15 59.7 °F 54.5 °F 29.70 in ESE 7.0 mph 12.0 mph 83 % 0.00 in 44 W/m2
17:20 59.5 °F 54.4 °F 29.70 in ESE 7.0 mph 12.0 mph 83 % 0.00 in 44 W/m2
17:25 59.4 °F 54.2 °F 29.70 in ESE 8.0 mph 12.0 mph 83 % 0.00 in 39 W/m2
17:27 59.4 °F 54.2 °F 29.70 in ESE 8.0 mph 12.0 mph 83 % 0.00 in 37 W/m2
17:32 59.4 °F 54.2 °F 29.70 in ESE 6.0 mph 12.0 mph 83 % 0.00 in 42 W/m2
17:37 59.4 °F 54.5 °F 29.70 in ESE 6.0 mph 13.0 mph 84 % 0.00 in 39 W/m2
17:42 59.2 °F 54.3 °F 29.70 in ESE 6.0 mph 13.0 mph 84 % 0.00 in 33 W/m2
17:47 59.2 °F 54.3 °F 29.70 in ESE 6.0 mph 10.0 mph 84 % 0.00 in 28 W/m2
17:52 59.0 °F 54.2 °F 29.70 in ESE 6.0 mph 12.0 mph 84 % 0.00 in 28 W/m2
17:57 58.8 °F 54.0 °F 29.69 in ESE 7.0 mph 12.0 mph 84 % 0.00 in 25 W/m2
18:02 58.6 °F 54.1 °F 29.69 in ESE 7.0 mph 12.0 mph 85 % 0.00 in 19 W/m2
18:07 58.5 °F 54.0 °F 29.69 in ESE 8.0 mph 14.0 mph 85 % 0.00 in 18 W/m2
18:12 58.3 °F 53.8 °F 29.69 in ESE 8.0 mph 14.0 mph 85 % 0.00 in 18 W/m2
18:17 58.1 °F 53.9 °F 29.69 in ESE 7.0 mph 13.0 mph 86 % 0.00 in 21 W/m2
18:22 57.9 °F 53.8 °F 29.69 in ESE 8.0 mph 13.0 mph 86 % 0.00 in 18 W/m2
18:27 57.7 °F 53.6 °F 29.69 in ESE 8.0 mph 12.0 mph 86 % 0.00 in 19 W/m2
18:32 57.7 °F 53.9 °F 29.69 in ESE 7.0 mph 12.0 mph 87 % 0.00 in 18 W/m2
18:37 57.6 °F 53.7 °F 29.69 in ESE 7.0 mph 14.0 mph 87 % 0.00 in 16 W/m2
18:42 57.4 °F 53.9 °F 29.69 in ESE 7.0 mph 14.0 mph 88 % 0.00 in 16 W/m2
18:47 57.2 °F 53.7 °F 29.69 in ESE 7.0 mph 13.0 mph 88 % 0.00 in 12 W/m2
18:52 57.0 °F 53.5 °F 29.69 in ESE 7.0 mph 13.0 mph 88 % 0.00 in 12 W/m2
18:57 56.8 °F 53.6 °F 29.69 in ESE 8.0 mph 13.0 mph 89 % 0.00 in 12 W/m2
19:02 56.7 °F 53.1 °F 29.69 in ESE 7.0 mph 13.0 mph 88 % 0.00 in 14 W/m2
19:07 56.7 °F 53.1 °F 29.69 in ESE 7.0 mph 13.0 mph 88 % 0.00 in 12 W/m2
19:12 56.8 °F 53.3 °F 29.69 in ESE 5.0 mph 12.0 mph 88 % 0.00 in 12 W/m2
19:17 56.8 °F 53.3 °F 29.69 in East 4.0 mph 10.0 mph 88 % 0.00 in 12 W/m2
19:22 57.0 °F 53.5 °F 29.69 in ESE 4.0 mph 10.0 mph 88 % 0.00 in 16 W/m2
19:27 57.0 °F 53.5 °F 29.69 in ESE 5.0 mph 10.0 mph 88 % 0.00 in 16 W/m2
19:32 57.0 °F 53.2 °F 29.69 in ESE 5.0 mph 9.0 mph 87 % 0.00 in 18 W/m2
19:37 57.0 °F 53.2 °F 29.69 in ESE 5.0 mph 9.0 mph 87 % 0.00 in 18 W/m2
19:42 57.0 °F 53.2 °F 29.69 in East 5.0 mph 11.0 mph 87 % 0.00 in 16 W/m2
19:47 57.0 °F 53.2 °F 29.69 in ESE 4.0 mph 11.0 mph 87 % 0.00 in 12 W/m2
19:52 57.0 °F 53.2 °F 29.69 in ESE 4.0 mph 10.0 mph 87 % 0.00 in 12 W/m2
19:57 57.0 °F 53.2 °F 29.69 in ESE 5.0 mph 10.0 mph 87 % 0.00 in 11 W/m2
20:02 57.0 °F 53.5 °F 29.68 in ESE 5.0 mph 9.0 mph 88 % 0.00 in 9 W/m2
20:07 57.0 °F 53.5 °F 29.68 in ESE 5.0 mph 10.0 mph 88 % 0.00 in 11 W/m2
20:12 56.8 °F 53.3 °F 29.68 in East 5.0 mph 10.0 mph 88 % 0.00 in 9 W/m2
20:17 56.8 °F 53.6 °F 29.68 in East 4.0 mph 10.0 mph 89 % 0.00 in 9 W/m2
20:22 56.8 °F 53.6 °F 29.68 in East 4.0 mph 9.0 mph 89 % 0.00 in 9 W/m2
20:27 56.8 °F 53.6 °F 29.68 in ESE 4.0 mph 8.0 mph 89 % 0.00 in 9 W/m2
20:32 56.7 °F 53.5 °F 29.68 in East 4.0 mph 10.0 mph 89 % 0.00 in 7 W/m2
20:37 56.7 °F 53.5 °F 29.67 in East 4.0 mph 10.0 mph 89 % 0.00 in 7 W/m2
20:42 56.7 °F 53.8 °F 29.67 in ESE 5.0 mph 9.0 mph 90 % 0.00 in 5 W/m2
20:47 56.7 °F 53.8 °F 29.67 in ESE 5.0 mph 9.0 mph 90 % 0.00 in 5 W/m2
20:52 56.7 °F 54.1 °F 29.67 in East 4.0 mph 9.0 mph 91 % 0.00 in 5 W/m2
20:57 56.5 °F 53.9 °F 29.67 in East 6.0 mph 12.0 mph 91 % 0.00 in 0 W/m2
21:02 56.3 °F 53.7 °F 29.67 in East 5.0 mph 12.0 mph 91 % 0.00 in 0 W/m2
21:07 56.1 °F 53.5 °F 29.68 in East 5.0 mph 10.0 mph 91 % 0.00 in 0 W/m2
21:12 55.9 °F 53.6 °F 29.67 in East 5.0 mph 10.0 mph 92 % 0.00 in 0 W/m2
21:18 55.9 °F 53.6 °F 29.67 in East 5.0 mph 10.0 mph 92 % 0.00 in 0 W/m2
21:23 55.8 °F 53.5 °F 29.67 in East 5.0 mph 9.0 mph 92 % 0.00 in 0 W/m2
21:28 55.8 °F 53.5 °F 29.67 in ESE 6.0 mph 12.0 mph 92 % 0.00 in 0 W/m2
21:33 55.6 °F 53.3 °F 29.67 in ESE 7.0 mph 12.0 mph 92 % 0.00 in 0 W/m2
21:38 55.4 °F 53.1 °F 29.68 in ESE 6.0 mph 12.0 mph 92 % 0.00 in 0 W/m2
21:43 55.4 °F 53.4 °F 29.67 in ESE 6.0 mph 10.0 mph 93 % 0.00 in 0 W/m2
21:48 55.4 °F 53.4 °F 29.67 in ESE 5.0 mph 9.0 mph 93 % 0.00 in 0 W/m2
21:53 55.2 °F 53.2 °F 29.67 in East 4.0 mph 9.0 mph 93 % 0.00 in 0 W/m2
21:58 55.2 °F 53.2 °F 29.67 in East 5.0 mph 9.0 mph 93 % 0.00 in 0 W/m2
22:03 55.2 °F 53.2 °F 29.67 in East 4.0 mph 9.0 mph 93 % 0.00 in 0 W/m2
22:08 55.2 °F 53.2 °F 29.67 in East 3.0 mph 9.0 mph 93 % 0.00 in 0 W/m2
22:13 55.0 °F 53.1 °F 29.67 in East 2.0 mph 7.0 mph 93 % 0.00 in 0 W/m2
22:18 55.2 °F 53.2 °F 29.67 in East 2.0 mph 6.0 mph 93 % 0.00 in 0 W/m2
22:23 55.0 °F 53.3 °F 29.67 in East 3.0 mph 6.0 mph 94 % 0.00 in 0 W/m2
22:28 55.0 °F 53.3 °F 29.67 in East 2.0 mph 7.0 mph 94 % 0.00 in 0 W/m2
22:33 55.0 °F 53.3 °F 29.67 in East 3.0 mph 7.0 mph 94 % 0.00 in 0 W/m2
22:38 55.0 °F 53.3 °F 29.67 in East 4.0 mph 8.0 mph 94 % 0.00 in 0 W/m2
22:43 55.0 °F 53.3 °F 29.67 in East 4.0 mph 8.0 mph 94 % 0.00 in 0 W/m2
22:48 55.0 °F 53.3 °F 29.66 in East 3.0 mph 8.0 mph 94 % 0.00 in 0 W/m2
22:53 55.0 °F 53.3 °F 29.66 in East 4.0 mph 8.0 mph 94 % 0.01 in 0 W/m2
22:58 55.0 °F 53.6 °F 29.66 in East 4.0 mph 8.0 mph 95 % 0.01 in 0 W/m2
23:03 54.9 °F 53.2 °F 29.66 in East 4.0 mph 9.0 mph 94 % 0.01 in 0 W/m2
23:08 54.9 °F 53.5 °F 29.66 in East 5.0 mph 9.0 mph 95 % 0.01 in 0 W/m2
23:13 54.9 °F 53.5 °F 29.66 in East 4.0 mph 8.0 mph 95 % 0.01 in 0 W/m2
23:18 54.9 °F 53.5 °F 29.66 in East 4.0 mph 8.0 mph 95 % 0.02 in 0 W/m2
23:23 54.9 °F 53.5 °F 29.66 in East 4.0 mph 8.0 mph 95 % 0.02 in 0 W/m2
23:28 54.9 °F 53.5 °F 29.66 in East 3.0 mph 8.0 mph 95 % 0.02 in 0 W/m2
23:33 54.9 °F 53.5 °F 29.66 in East 3.0 mph 9.0 mph 95 % 0.02 in 0 W/m2
23:38 54.7 °F 53.3 °F 29.66 in East 5.0 mph 9.0 mph 95 % 0.02 in 0 W/m2
23:43 54.3 °F 52.9 °F 29.66 in ENE 4.0 mph 9.0 mph 95 % 0.03 in 0 W/m2
23:48 54.3 °F 52.9 °F 29.66 in ENE 4.0 mph 8.0 mph 95 % 0.03 in 0 W/m2
23:53 54.1 °F 52.7 °F 29.66 in ENE 4.0 mph 10.0 mph 95 % 0.02 in 0 W/m2
23:58 54.0 °F 52.6 °F 29.66 in ENE 5.0 mph 10.0 mph 95 % 0.02 in 0 W/m2
Delerius-Weather
Compliments of Weather Underground - 2.25 mb

Data updates at regular intervals.